Location: Hartford
(41.7640°N, 72.6860°W)
Time: 11:43:59
(UTC-05:00)

ISS - Visible Passes

Search period start: 04 March 2015 00:00
Search period end: 14 March 2015 01:00
Orbit: 395 x 408 km, 51.6° (Epoch: 04 March)

Date Brightness Start Highest point End Pass type
(mag) Time Alt. Az. Time Alt. Az. Time Alt. Az.
09 Mar -0.8 06:22:39 10° S 06:25:04 20° SE 06:27:32 10° E visible
11 Mar -2.2 06:05:52 10° SSW 06:08:51 40° SE 06:11:54 10° ENE visible
12 Mar -1.1 05:11:44 19° SE 05:12:08 19° SE 05:14:32 10° E visible
13 Mar -3.4 05:49:19 32° SW 05:50:40 81° SE 05:53:53 10° ENE visible
